Location: Poughquag
(41.6090°N, 73.6820°W)
Time: 12:44:41
(UTC-04:00)

Vanguard 2 Rocket - Pass Details

Date: 31 May 2020
Orbit: 556 x 3324 km, 32.9° (Epoch: 06 July)

Event Time Altitude Azimuth Distance (km) Brightness Sun altitude
Rises 20:03:17 0° 273° (W) 5,087 12.1 2.3°
Reaches altitude 10° 20:06:18 10° 267° (W) 4,416 11.5 1.8°
Maximum altitude 20:18:34 46° 199° (SSW) 3,374 9.8 -0.2°
Drops below altitude 10° 20:36:25 10° 135° (SE) 6,251 10.5 -3.1°
Enters shadow 20:39:58 - 132° (SE) 6,954 10.7 -3.6°
Sets 20:41:44 0° 130° (SE) 7,302 - -3.9°
